• In Uzbekistan
  • List of Countries
  • For 7 days
  • Water Temperature
  • Weather Map
  • Weather Widgets
  • user-avatar
    Login

    Hourly Weather Serowe

    Today, 13 December, Friday

    Time Temperature Precipitation Wind Pressure Humidity
    00:00 +23°C° 0 mm 4 mps 666 mmHg 50%
    01:00 +22°C° 0 mm 4 mps 666 mmHg 63%
    02:00 +21°C° 0 mm 5 mps 666 mmHg 77%
    03:00 +21°C° 0 mm 6 mps 666 mmHg 79%
    04:00 +20°C° 0 mm 6 mps 666 mmHg 80%
    05:00 +20°C° 0 mm 6 mps 666 mmHg 82%
    06:00 +20°C° 0 mm 6 mps 667 mmHg 78%
    07:00 +21°C° 0 mm 6 mps 667 mmHg 75%
    08:00 +21°C° 0 mm 6 mps 668 mmHg 71%
    09:00 +23°C° 0 mm 6 mps 668 mmHg 63%
    10:00 +26°C° 0 mm 6 mps 669 mmHg 55%
    11:00 +29°C° 0 mm 6 mps 669 mmHg 47%
    12:00 +30°C° 0 mm 6 mps 669 mmHg 43%
    13:00 +32°C° 0 mm 5 mps 668 mmHg 38%
    14:00 +33°C° 0 mm 5 mps 668 mmHg 33%
    15:00 +33°C° 0 mm 5 mps 668 mmHg 33%
    16:00 +32°C° 0 mm 4 mps 667 mmHg 33%
    17:00 +32°C° 0 mm 4 mps 667 mmHg 33%
    18:00 +29°C° 0 mm 5 mps 667 mmHg 40%
    19:00 +27°C° 0 mm 5 mps 667 mmHg 47%
    20:00 +26°C° 0 mm 5 mps 667 mmHg 53%
    21:00 +25°C° 0 mm 5 mps 668 mmHg 56%
    22:00 +23°C° 0 mm 5 mps 668 mmHg 58%
    23:00 +22°C° 0 mm 5 mps 668 mmHg 61%

    Tomorrow, 14 December, Saturday

    Time Temperature Precipitation Wind Pressure Humidity
    00:00 +21°C° 0 mm 5 mps 667 mmHg 63%
    01:00 +21°C° 0 mm 6 mps 667 mmHg 66%
    02:00 +20°C° 0 mm 6 mps 666 mmHg 69%
    03:00 +20°C° 0 mm 6 mps 666 mmHg 71%
    04:00 +19°C° 0 mm 6 mps 666 mmHg 74%
    05:00 +19°C° 0 mm 5 mps 666 mmHg 76%
    06:00 +20°C° 0 mm 5 mps 667 mmHg 70%
    07:00 +21°C° 0 mm 6 mps 668 mmHg 63%
    08:00 +23°C° 0 mm 6 mps 668 mmHg 56%
    09:00 +26°C° 0 mm 5 mps 668 mmHg 48%
    10:00 +29°C° 0 mm 5 mps 669 mmHg 39%
    11:00 +32°C° 0 mm 5 mps 669 mmHg 31%
    12:00 +33°C° 0 mm 4 mps 668 mmHg 28%
    13:00 +35°C° 0 mm 4 mps 668 mmHg 25%
    14:00 +36°C° 0 mm 3 mps 668 mmHg 22%
    15:00 +36°C° 0 mm 3 mps 667 mmHg 21%
    16:00 +36°C° 0 mm 3 mps 667 mmHg 20%
    17:00 +36°C° 0 mm 3 mps 666 mmHg 19%
    18:00 +34°C° 0 mm 3 mps 666 mmHg 23%
    19:00 +31°C° 0 mm 3 mps 666 mmHg 27%
    20:00 +29°C° 0 mm 3 mps 666 mmHg 31%
    21:00 +28°C° 0 mm 3 mps 666 mmHg 35%
    22:00 +27°C° 0 mm 3 mps 666 mmHg 40%
    23:00 +26°C° 0 mm 4 mps 667 mmHg 44%

    Day after tomorrow, 15 December, Sunday

    Time Temperature Precipitation Wind Pressure Humidity
    00:00 +25°C° 0 mm 4 mps 666 mmHg 45%
    01:00 +25°C° 0 mm 3 mps 666 mmHg 47%
    02:00 +24°C° 0 mm 3 mps 665 mmHg 48%
    03:00 +24°C° 0 mm 3 mps 665 mmHg 49%
    04:00 +24°C° 0 mm 3 mps 665 mmHg 50%
    05:00 +22°C° 0 mm 3 mps 665 mmHg 50%
    06:00 +25°C° 0 mm 4 mps 666 mmHg 45%
    07:00 +27°C° 0 mm 4 mps 667 mmHg 40%
    08:00 +30°C° 0 mm 5 mps 668 mmHg 34%
    09:00 +32°C° 0 mm 4 mps 668 mmHg 30%
    10:00 +34°C° 0 mm 4 mps 668 mmHg 25%
    11:00 +36°C° 0 mm 3 mps 668 mmHg 21%
    12:00 +37°C° 0 mm 3 mps 668 mmHg 19%
    13:00 +38°C° 0 mm 2 mps 667 mmHg 18%
    14:00 +39°C° 0 mm 2 mps 666 mmHg 16%
    15:00 +38°C° 0 mm 2 mps 666 mmHg 17%
    16:00 +38°C° 0 mm 3 mps 665 mmHg 18%
    17:00 +37°C° 0 mm 3 mps 665 mmHg 19%
    18:00 +36°C° 0 mm 3 mps 665 mmHg 21%
    19:00 +34°C° 0 mm 3 mps 665 mmHg 22%
    20:00 +32°C° 0 mm 2 mps 665 mmHg 24%
    21:00 +31°C° 0 mm 2 mps 665 mmHg 25%
    22:00 +31°C° 0 mm 2 mps 665 mmHg 25%
    23:00 +30°C° 0 mm 2 mps 665 mmHg 26%

    16 December, Monday

    Time Temperature Precipitation Wind Pressure Humidity
    00:00 +29°C° 0 mm 1 mps 665 mmHg 28%
    01:00 +29°C° 0 mm 1 mps 664 mmHg 29%
    02:00 +28°C° 0 mm 1 mps 664 mmHg 31%
    03:00 +27°C° 0 mm 1 mps 664 mmHg 32%
    04:00 +27°C° 0 mm 1 mps 664 mmHg 34%
    05:00 +26°C° 0 mm 1 mps 664 mmHg 35%
    06:00 +28°C° 0 mm 1 mps 665 mmHg 33%
    07:00 +29°C° 0 mm 1 mps 666 mmHg 31%
    08:00 +31°C° 0 mm 1 mps 667 mmHg 28%
    09:00 +33°C° 0 mm 3 mps 667 mmHg 29%
    10:00 +34°C° 0 mm 4 mps 668 mmHg 29%
    11:00 +35°C° 0 mm 6 mps 668 mmHg 30%
    12:00 +35°C° 0 mm 6 mps 667 mmHg 31%
    13:00 +35°C° 0 mm 7 mps 667 mmHg 32%
    14:00 +36°C° 0 mm 7 mps 666 mmHg 33%
    15:00 +33°C° 1.1 mm 6 mps 666 mmHg 42%
    16:00 +30°C° 1.1 mm 5 mps 665 mmHg 51%
    17:00 +27°C° 1.1 mm 4 mps 665 mmHg 60%
    18:00 +26°C° 0.6 mm 5 mps 665 mmHg 63%
    19:00 +26°C° 0.6 mm 5 mps 666 mmHg 66%
    20:00 +24°C° 0.6 mm 6 mps 666 mmHg 69%
    21:00 +23°C° 0 mm 6 mps 666 mmHg 72%
    22:00 +21°C° 0 mm 6 mps 666 mmHg 75%
    23:00 +20°C° 0 mm 7 mps 667 mmHg 78%

    17 December, Tuesday

    Time Temperature Precipitation Wind Pressure Humidity
    00:00 +20°C° 0 mm 7 mps 666 mmHg 80%
    01:00 +18°C° 0 mm 7 mps 666 mmHg 81%
    02:00 +17°C° 0 mm 7 mps 665 mmHg 83%
    03:00 +17°C° 0 mm 6 mps 665 mmHg 82%
    04:00 +17°C° 0 mm 6 mps 666 mmHg 81%
    05:00 +17°C° 0 mm 6 mps 666 mmHg 81%
    06:00 +19°C° 0 mm 6 mps 666 mmHg 79%
    07:00 +19°C° 0 mm 6 mps 667 mmHg 77%
    08:00 +20°C° 0 mm 6 mps 667 mmHg 75%
    09:00 +22°C° 0 mm 5 mps 668 mmHg 67%
    10:00 +25°C° 0 mm 5 mps 668 mmHg 60%
    11:00 +27°C° 0 mm 5 mps 668 mmHg 52%
    12:00 +29°C° 0 mm 4 mps 668 mmHg 46%
    13:00 +31°C° 0 mm 3 mps 667 mmHg 41%
    14:00 +34°C° 0 mm 3 mps 667 mmHg 35%
    15:00 +34°C° 0 mm 3 mps 666 mmHg 34%
    16:00 +34°C° 0 mm 3 mps 666 mmHg 33%
    17:00 +34°C° 0 mm 3 mps 665 mmHg 33%
    18:00 +31°C° 0 mm 3 mps 665 mmHg 37%
    19:00 +29°C° 0 mm 3 mps 665 mmHg 42%
    20:00 +27°C° 0 mm 3 mps 665 mmHg 46%
    21:00 +26°C° 0 mm 3 mps 665 mmHg 49%
    22:00 +25°C° 0 mm 3 mps 665 mmHg 52%
    23:00 +25°C° 0 mm 3 mps 665 mmHg 55%

    18 December, Wednesday

    Time Temperature Precipitation Wind Pressure Humidity
    00:00 +24°C° 0 mm 3 mps 665 mmHg 56%
    01:00 +24°C° 0 mm 3 mps 665 mmHg 58%
    02:00 +22°C° 0 mm 3 mps 664 mmHg 59%
    03:00 +23°C° 0 mm 2 mps 664 mmHg 61%
    04:00 +21°C° 0 mm 2 mps 664 mmHg 64%
    05:00 +21°C° 0 mm 2 mps 664 mmHg 67%
    06:00 +24°C° 0 mm 3 mps 665 mmHg 61%
    07:00 +26°C° 0 mm 3 mps 666 mmHg 55%
    08:00 +27°C° 0 mm 4 mps 666 mmHg 49%
    09:00 +29°C° 0 mm 4 mps 667 mmHg 44%
    10:00 +33°C° 0 mm 4 mps 667 mmHg 38%
    11:00 +35°C° 0 mm 4 mps 667 mmHg 32%
    12:00 +34°C° 0.1 mm 3 mps 666 mmHg 32%
    13:00 +34°C° 0.1 mm 3 mps 665 mmHg 33%
    14:00 +34°C° 0.1 mm 2 mps 665 mmHg 33%
    15:00 +32°C° 0.2 mm 2 mps 664 mmHg 36%
    16:00 +31°C° 0.2 mm 1 mps 664 mmHg 39%
    17:00 +30°C° 0.2 mm 1 mps 663 mmHg 42%
    18:00 +29°C° 0.2 mm 1 mps 663 mmHg 46%
    19:00 +28°C° 0.2 mm 2 mps 663 mmHg 51%
    20:00 +27°C° 0.2 mm 2 mps 663 mmHg 56%
    21:00 +26°C° 0.1 mm 2 mps 664 mmHg 57%
    22:00 +26°C° 0.1 mm 1 mps 664 mmHg 58%
    23:00 +25°C° 0.1 mm 1 mps 664 mmHg 60%
    Show more